(139) Juewa
ephemeris date magn radius delta ra dec elong phase
Today1 Jul 202512.92.398 AU2.250 AU12h08m-06°58'85.7°25.0°
Opposition19 Jul 202612.43.018 AU2.025 AU20h11m-35°09'165.2°4.9°
(139) Juewa - 2025-07-01
astro.vanbuitenen.nl


 
-1 year
-1 month
-1 day
Now
+1 day
+1 month
+1 year

The interactive orbit chart above shows the body's path through the solar system and its position at the given date. Green and blue lines are shown perpendicular to the ecliptic plane: Green if the path is above the ecliptic plane, blue if it is below. (Left-click and drag to rotate the view; Right-click and drag to move the view; Use scroll wheel to zoom in our out.)

The orbital elements of Juewa are:

            e (Eccentricity)                : 0.1701350
            a (Semimajor axis)              : 2.7851378
            i (Inclination)                 : 10.87201
            Ω (Longitude of ascending node) : 1.67162
            ω (Argument of perihelion)      : 167.27871
            M (Mean anomaly)                : 17.56544
            Epoch                           : 2025 May 05

            L (Longitude of perihelion)     : -10.82857
            B (Latitude of perihelion)      : 2.38045
            P (Orbital period in years)     : 4.65            
        

The light curve chart below shows the estimated development of the minor planet's magnitude.


The all-sky chart below shows the path of the minor planet over the same period as the light curve. The current position is marked yellow.





The following chart shows the path of the minor planet in the next few days. The field of view is optimized for (~10x50) binoculars and finderscopes. A more printer-friendly version of the same chart can be found below.




Ephemerides:
Date       Time       RA (2000)    DEC (2000)    delta   radius  elong  phase   PA    magn
2025-07-01 00:00 UT   12 08 41.4   -06 58 28     2.250    2.398   85.7   25.0   114   12.9 
2025-07-01 02:51 UT   12 08 49.3   -06 59 29     2.251    2.398   85.6   25.0   114   12.9 
2025-07-02 00:00 UT   12 09 48.7   -07 07 05     2.263    2.400   85.1   25.0   114   12.9 
2025-07-03 00:00 UT   12 10 56.7   -07 15 45     2.276    2.401   84.4   24.9   114   12.9 
2025-07-04 00:00 UT   12 12 05.5   -07 24 29     2.288    2.402   83.8   24.9   114   12.9 
2025-07-05 00:00 UT   12 13 15.0   -07 33 15     2.301    2.403   83.2   24.8   114   12.9 
2025-07-06 00:00 UT   12 14 25.2   -07 42 04     2.314    2.404   82.6   24.8   114   12.9 
2025-07-07 00:00 UT   12 15 36.1   -07 50 57     2.327    2.406   81.9   24.7   114   12.9 
2025-07-08 00:00 UT   12 16 47.7   -07 59 52     2.340    2.407   81.3   24.7   114   12.9 
2025-07-09 00:00 UT   12 17 59.9   -08 08 50     2.353    2.408   80.7   24.6   114   13.0 
2025-07-10 00:00 UT   12 19 12.8   -08 17 50     2.366    2.409   80.1   24.6   114   13.0 
2025-07-11 00:00 UT   12 20 26.4   -08 26 53     2.379    2.410   79.5   24.5   115   13.0 
2025-07-12 00:00 UT   12 21 40.5   -08 35 59     2.392    2.412   78.9   24.4   115   13.0 
2025-07-13 00:00 UT   12 22 55.3   -08 45 07     2.405    2.413   78.3   24.4   115   13.0 
2025-07-14 00:00 UT   12 24 10.8   -08 54 18     2.418    2.414   77.7   24.3   115   13.0 
2025-07-15 00:00 UT   12 25 26.8   -09 03 31     2.430    2.415   77.1   24.2   115   13.0 
2025-07-16 00:00 UT   12 26 43.4   -09 12 46     2.443    2.417   76.5   24.1   115   13.0 
2025-07-17 00:00 UT   12 28 00.6   -09 22 04     2.456    2.418   75.9   24.1   115   13.0 
2025-07-18 00:00 UT   12 29 18.4   -09 31 24     2.469    2.419   75.3   24.0   115   13.1 
2025-07-19 00:00 UT   12 30 36.8   -09 40 46     2.481    2.421   74.7   23.9   115   13.1 
2025-07-20 00:00 UT   12 31 55.8   -09 50 10     2.494    2.422   74.1   23.8   115   13.1 
2025-07-21 00:00 UT   12 33 15.3   -09 59 36     2.507    2.423   73.5   23.7   115   13.1 
2025-07-22 00:00 UT   12 34 35.4   -10 09 04     2.520    2.424   72.9   23.6   115   13.1 
2025-07-23 00:00 UT   12 35 56.0   -10 18 34     2.532    2.426   72.3   23.5   115   13.1 
2025-07-24 00:00 UT   12 37 17.2   -10 28 06     2.545    2.427   71.8   23.4   115   13.1 
2025-07-25 00:00 UT   12 38 39.0   -10 37 39     2.557    2.428   71.2   23.3   115   13.1 


    Terminology:
            
    delta:  distance between minor planet and earth in AU
    radius: distance between minor planet and sun in AU
    magn:   magnitude (brightness) estimate    
    ra:     right ascension in hours (24h = 360deg)
    dec:    declination in degrees
    elong:  elongation in degrees (angle sun-earth-minor planet)    
    phase:  phase angle in degrees (angle sun-minor planet-earth)        
    AU:     Astronomical Unit (mean distance between earth and sun: 149597870.7 km
    

Orbital elements provided by the MPC (Minor Planet Center).
Calculations by a modified version of AAPlus, a C# implementation of the AA+ project by PJ Naughter from the algorithms presented in the book "Astronomical Algorithms" by Jean Meeus.
NGC2000 dso catalog and star labels from VizieR as provided by the Strasbourg astronomical Data Center.
Tycho2 catalog from the ESO archive.